Location: Arpaise
(41.0333°N, 14.7333°E)
Time: 22:07:35
(UTC+00:00)

Cosmos 846 Rocket - Pass Details

Date: 26 January 2021
Orbit: 948 x 991 km, 82.9° (Epoch: 06 March)

Event Time Altitude Azimuth Distance (km) Brightness Sun altitude
Rises 17:20:50 0° 172° (S) 3,661 8.6 -13.3°
Reaches altitude 10° 17:23:24 10° 168° (SSE) 2,712 7.8 -13.8°
Maximum altitude 17:29:25 55° 92° (E) 1,147 5.5 -14.9°
Drops below altitude 10° 17:35:25 10° 16° (NNE) 2,700 7.6 -16.0°
Sets 17:37:57 0° 12° (NNE) 3,645 8.3 -16.5°
